User: anonymous   Login
Location: Brno
(49.2000°N, 16.6330°E)
Time: 16:48:25
(UTC+01:00)
Language:

Cosmos 2227 - Orbit

View from above orbital plane
View from above orbital plane
View from above satellite
View from above satellite

Ground track
Ground track

The orbit data is extracted from the following two-line orbital elements,

1 22284U 92093A   17056.49659999 -.00000247  00000-0 -10604-3 0  9999
2 22284  70.9780 109.6273 0020016 333.5720  26.4379 14.13271437246861
Epoch (UTC): 25 February 2017 11:55:06
Eccentricity: 0.0020016
inclination: 70.9780°
perigee height: 834 km
apogee height: 862 km
right ascension of ascending node: 109.6273°
argument of perigee: 333.5720°
revolutions per day: 14.13271437
mean anomaly at epoch: 26.4379°
orbit number at epoch: 24686

The dashed part of the orbit path shows where the satellite is in the earth's shadow,  

DLR